Location: Bagnara
(41.0500°N, 14.7833°E)
Time: 10:13:49
(UTC+00:00)

Cosmos 2369 Rocket - Pass Details

Date: 20 June 2021
Orbit: 828 x 854 km, 71.0° (Epoch: 03 August)

Event Time Altitude Azimuth Distance (km) Brightness Sun altitude
Rises 00:29:57 0° 330° (NNW) 3,430 5.9 -22.4°
Reaches altitude 10° 00:32:30 10° 324° (NW) 2,490 5.0 -22.2°
Maximum altitude 00:37:54 45° 254° (WSW) 1,150 2.6 -21.8°
Enters shadow 00:38:39 42° 231° (SW) 1,190 2.5 -21.8°
